Location: Anglesey
(53.1800°N, 4.2200°W)
Time: 19:43:28
(UTC+00:00)

N. Korean satellite - Pass Details

Date: 12 October 2017
Orbit: 461 x 513 km, 97.2° (Epoch: 11 December)

Event Time Altitude Azimuth Distance (km) Brightness Sun altitude
Rises 20:32:47 0° 217° (SW) 2,548 10.5 -19.5°
Reaches altitude 10° 20:36:11 10° 253° (WSW) 1,660 10.1 -20.0°
Maximum altitude 20:37:23 11° 273° (W) 1,574 10.3 -20.1°
Drops below altitude 10° 20:38:35 10° 293° (WNW) 1,656 10.4 -20.3°
Sets 20:41:59 0° 328° (NNW) 2,529 10.9 -20.8°
